Location: Nelson
(47.1935°N, 121.0537°W)
Time: 12:31:06
(UTC+00:00)

Envisat - Pass Details

Date: 29 November 2022
Orbit: 763 x 765 km, 98.2° (Epoch: 31 January)

Event Time Altitude Azimuth Distance (km) Brightness Sun altitude
Rises 11:50:22 0° 19° (NNE) 3,245 6.5 -36.2°
Reaches altitude 10° 11:52:48 10° 26° (NNE) 2,314 5.8 -35.8°
Enters shadow 11:54:49 23° 38° (NE) 1,608 5.0 -35.4°
